AEA45L EDDS-EDDH

Flight info

Callsign AEA45L
Flight time 0h 56m
Altitude 37000
Route OKIBA4B/25 OKIBA N851 RIMKI Z99 LOHRE DCT MASEK DCT ELNAT P605 NOLGO NOLGO6A
Aircraft B738/M-SDE2E3FGHIRWXY/LB1

Departure

Time 2026-05-06 16:12
Airport Stuttgart Airport (EDDS)

Arrival

Time 2026-05-06 17:08
Airport Hamburg Helmut Schmidt Airport (EDDH)
Time Latitude Longitude Altitude Speed Heading
2026-05-06 15:44 48.68895 9.19431 1278 ft 0 kts 344°
2026-05-06 15:45 48.68910 9.19516 1278 ft 0 kts 344°
2026-05-06 16:02 48.68903 9.19519 1278 ft 2 kts 344°
2026-05-06 16:02 48.68888 9.19525 1278 ft 2 kts 344°
2026-05-06 16:02 48.68874 9.19532 1278 ft 2 kts 344°
2026-05-06 16:03 48.68859 9.19538 1278 ft 2 kts 344°
2026-05-06 16:03 48.68844 9.19537 1278 ft 2 kts 28°
2026-05-06 16:03 48.68833 9.19521 1278 ft 2 kts 63°
2026-05-06 16:03 48.68831 9.19512 1278 ft 1 kts 79°
2026-05-06 16:04 48.68830 9.19506 1278 ft 0 kts 74°
2026-05-06 16:06 48.68830 9.19509 1278 ft 2 kts 73°
2026-05-06 16:07 48.68859 9.19659 1278 ft 21 kts 75°
2026-05-06 16:07 48.68862 9.19844 1278 ft 17 kts 129°
2026-05-06 16:07 48.68831 9.20003 1278 ft 17 kts 77°
2026-05-06 16:07 48.68876 9.20222 1278 ft 25 kts 74°
2026-05-06 16:08 48.68927 9.20499 1278 ft 29 kts 75°
2026-05-06 16:08 48.68983 9.20798 1278 ft 29 kts 74°
2026-05-06 16:08 48.69040 9.21086 1278 ft 28 kts 74°
2026-05-06 16:08 48.69097 9.21392 1278 ft 32 kts 73°
2026-05-06 16:09 48.69160 9.21720 1278 ft 32 kts 75°
2026-05-06 16:09 48.69219 9.22042 1278 ft 31 kts 73°
2026-05-06 16:09 48.69282 9.22363 1278 ft 34 kts 73°
2026-05-06 16:09 48.69353 9.22719 1278 ft 34 kts 73°
2026-05-06 16:10 48.69419 9.23071 1278 ft 34 kts 73°
2026-05-06 16:10 48.69481 9.23414 1278 ft 33 kts 74°
2026-05-06 16:10 48.69541 9.23749 1278 ft 32 kts 73°
2026-05-06 16:10 48.69606 9.24071 1278 ft 27 kts 74°
2026-05-06 16:11 48.69544 9.24301 1278 ft 22 kts 155°
2026-05-06 16:11 48.69407 9.24348 1278 ft 14 kts 189°
2026-05-06 16:11 48.69369 9.24222 1278 ft 14 kts 258°
2026-05-06 16:11 48.69319 9.23948 1278 ft 53 kts 254°
2026-05-06 16:12 48.69155 9.23083 1278 ft 117 kts 254°
2026-05-06 16:12 48.68881 9.21637 1283 ft 167 kts 253°
2026-05-06 16:12 48.68568 9.19933 1922 ft 165 kts 255°
2026-05-06 16:12 48.68314 9.18308 2703 ft 160 kts 257°
2026-05-06 16:13 48.68061 9.16687 3241 ft 162 kts 255°
2026-05-06 16:13 48.67717 9.15043 3697 ft 168 kts 252°
2026-05-06 16:13 48.67297 9.13310 3950 ft 188 kts 252°
2026-05-06 16:13 48.66893 9.11355 4305 ft 203 kts 259°
2026-05-06 16:14 48.67028 9.09182 4629 ft 220 kts 295°
2026-05-06 16:14 48.68071 9.07394 5066 ft 237 kts 321°
2026-05-06 16:14 48.69532 9.06184 5681 ft 246 kts 338°
2026-05-06 16:14 48.71193 9.05438 6136 ft 259 kts 341°
2026-05-06 16:15 48.72966 9.04693 6654 ft 270 kts 343°
2026-05-06 16:15 48.74867 9.04316 7275 ft 280 kts 358°
2026-05-06 16:15 48.76780 9.04905 7955 ft 289 kts 21°
2026-05-06 16:15 48.78450 9.06623 8727 ft 295 kts 43°
2026-05-06 16:16 48.79709 9.09020 9505 ft 296 kts 54°
2026-05-06 16:16 48.80878 9.11616 10191 ft 302 kts 54°
2026-05-06 16:16 48.82099 9.14257 10789 ft 311 kts 54°
2026-05-06 16:16 48.83370 9.16959 11336 ft 322 kts 53°
2026-05-06 16:17 48.84692 9.19774 11864 ft 334 kts 53°
2026-05-06 16:17 48.86053 9.22684 12358 ft 346 kts 53°
2026-05-06 16:17 48.87474 9.25743 12816 ft 360 kts 54°
2026-05-06 16:17 48.89012 9.28804 13342 ft 371 kts 48°
2026-05-06 16:18 48.90931 9.31424 14043 ft 375 kts 31°
2026-05-06 16:18 48.93301 9.33017 14889 ft 374 kts 14°
2026-05-06 16:18 48.95867 9.33579 15615 ft 376 kts 360°
2026-05-06 16:18 48.98455 9.33495 16358 ft 378 kts 356°
2026-05-06 16:19 49.01094 9.33288 17023 ft 382 kts 355°
2026-05-06 16:19 49.03746 9.33058 17865 ft 381 kts 355°
2026-05-06 16:19 49.06359 9.32828 18726 ft 379 kts 356°
2026-05-06 16:19 49.09011 9.32600 19319 ft 384 kts 356°
2026-05-06 16:20 49.11718 9.32376 19881 ft 390 kts 356°
2026-05-06 16:20 49.14427 9.32156 20503 ft 394 kts 356°
2026-05-06 16:20 49.17175 9.31937 21157 ft 396 kts 356°
2026-05-06 16:20 49.19929 9.31719 21795 ft 398 kts 356°
2026-05-06 16:21 49.22725 9.31496 22406 ft 401 kts 356°
2026-05-06 16:21 49.25570 9.31271 22919 ft 406 kts 356°
2026-05-06 16:21 49.28400 9.31049 23376 ft 412 kts 356°
2026-05-06 16:21 49.31252 9.30828 23856 ft 417 kts 356°
2026-05-06 16:22 49.34185 9.30624 24378 ft 420 kts 358°
2026-05-06 16:22 49.37100 9.30676 24888 ft 424 kts
2026-05-06 16:22 49.40048 9.30974 25398 ft 427 kts
2026-05-06 16:22 49.42995 9.31396 25813 ft 432 kts
2026-05-06 16:23 49.45993 9.31876 26274 ft 436 kts
2026-05-06 16:23 49.49047 9.32381 26744 ft 439 kts
2026-05-06 16:23 49.52086 9.32879 27217 ft 442 kts
2026-05-06 16:23 49.55168 9.33371 27757 ft 443 kts
2026-05-06 16:24 49.58219 9.33848 28366 ft 442 kts
2026-05-06 16:24 49.61241 9.34312 28895 ft 442 kts
2026-05-06 16:24 49.64305 9.34777 29512 ft 440 kts
2026-05-06 16:24 49.67345 9.35235 30153 ft 437 kts
2026-05-06 16:25 49.70324 9.35683 30706 ft 435 kts
2026-05-06 16:25 49.73359 9.36152 31112 ft 436 kts
2026-05-06 16:25 49.76349 9.36853 31538 ft 436 kts 10°
2026-05-06 16:25 49.79279 9.37814 31981 ft 434 kts 12°
2026-05-06 16:26 49.82185 9.38912 32498 ft 429 kts 13°
2026-05-06 16:26 49.85113 9.40074 32674 ft 435 kts 13°
2026-05-06 16:26 49.91050 9.42459 32777 ft 453 kts 13°
2026-05-06 16:27 49.97268 9.44925 32886 ft 470 kts 13°
2026-05-06 16:27 50.03713 9.47450 33267 ft 480 kts 12°
2026-05-06 16:28 50.06950 9.48599 33617 ft 478 kts
2026-05-06 16:28 50.10202 9.49449 33953 ft 476 kts
2026-05-06 16:28 50.13477 9.50096 34257 ft 474 kts
2026-05-06 16:28 50.16728 9.50628 34577 ft 473 kts
2026-05-06 16:29 50.20007 9.51119 34906 ft 472 kts
2026-05-06 16:29 50.23280 9.51600 35239 ft 470 kts
2026-05-06 16:29 50.26514 9.52083 35549 ft 469 kts
2026-05-06 16:29 50.29749 9.52581 35859 ft 467 kts
2026-05-06 16:30 50.32951 9.53088 36128 ft 467 kts
2026-05-06 16:30 50.35106 9.53435 36265 ft 467 kts
2026-05-06 16:30 50.39406 9.54140 36537 ft 467 kts
2026-05-06 16:30 50.42633 9.54678 36714 ft 468 kts
2026-05-06 16:31 50.49159 9.55775 36764 ft 477 kts
2026-05-06 16:31 50.55739 9.56891 36762 ft 476 kts
2026-05-06 16:32 50.62300 9.58012 36761 ft 475 kts
2026-05-06 16:32 50.68838 9.59130 36757 ft 475 kts
2026-05-06 16:33 50.75405 9.60268 36757 ft 474 kts
2026-05-06 16:34 50.85247 9.62160 36751 ft 475 kts
2026-05-06 16:34 50.91740 9.63447 36755 ft 474 kts
2026-05-06 16:35 50.98279 9.64738 36755 ft 475 kts
2026-05-06 16:35 51.04816 9.66024 36758 ft 475 kts
2026-05-06 16:36 51.11344 9.67306 36761 ft 474 kts
2026-05-06 16:36 51.17895 9.68595 36759 ft 474 kts
2026-05-06 16:37 51.24425 9.69830 36762 ft 473 kts
2026-05-06 16:37 51.30968 9.70896 36763 ft 473 kts
2026-05-06 16:38 51.37511 9.71918 36769 ft 472 kts
2026-05-06 16:38 51.44047 9.72950 36775 ft 472 kts
2026-05-06 16:39 51.50560 9.74026 36782 ft 472 kts
2026-05-06 16:39 51.57066 9.75235 36781 ft 473 kts
2026-05-06 16:40 51.63504 9.76483 36779 ft 459 kts
2026-05-06 16:40 51.69786 9.77701 36784 ft 460 kts
2026-05-06 16:41 51.76138 9.78922 36784 ft 460 kts
2026-05-06 16:41 51.82464 9.80135 36788 ft 460 kts
2026-05-06 16:42 51.88823 9.81354 36787 ft 460 kts
2026-05-06 16:42 51.95122 9.82572 36388 ft 455 kts
2026-05-06 16:42 51.98262 9.83182 35920 ft 454 kts
2026-05-06 16:43 52.01387 9.83789 35327 ft 456 kts
2026-05-06 16:43 52.04538 9.84401 34683 ft 459 kts
2026-05-06 16:43 52.07686 9.85013 34204 ft 458 kts
2026-05-06 16:43 52.10831 9.85627 33730 ft 457 kts
2026-05-06 16:44 52.13989 9.86244 33231 ft 456 kts
2026-05-06 16:44 52.17120 9.86857 32667 ft 455 kts
2026-05-06 16:44 52.20247 9.87470 32150 ft 453 kts
2026-05-06 16:44 52.23359 9.88092 31641 ft 450 kts
2026-05-06 16:45 52.26411 9.88916 31099 ft 448 kts 11°
2026-05-06 16:45 52.29440 9.90035 30540 ft 445 kts 13°
2026-05-06 16:45 52.32391 9.91295 30026 ft 440 kts 15°
2026-05-06 16:45 52.35308 9.92616 29687 ft 432 kts 15°
2026-05-06 16:46 52.38220 9.93959 29410 ft 430 kts 15°
2026-05-06 16:46 52.41096 9.95288 29092 ft 434 kts 15°
2026-05-06 16:46 52.43975 9.96611 28638 ft 431 kts 15°
2026-05-06 16:46 52.46866 9.97928 28139 ft 426 kts 15°
2026-05-06 16:47 52.49673 9.99197 27652 ft 422 kts 15°
2026-05-06 16:47 52.52470 10.00455 27158 ft 417 kts 15°
2026-05-06 16:47 52.55244 10.01697 26669 ft 412 kts 14°
2026-05-06 16:47 52.57983 10.02923 26176 ft 408 kts 14°
2026-05-06 16:48 52.60724 10.04151 25688 ft 403 kts 14°
2026-05-06 16:48 52.63392 10.05347 25206 ft 399 kts 14°
2026-05-06 16:48 52.66048 10.06537 24725 ft 395 kts 14°
2026-05-06 16:48 52.68675 10.07714 24253 ft 390 kts 14°
2026-05-06 16:49 52.71261 10.08875 23775 ft 387 kts 14°
2026-05-06 16:49 52.73829 10.10023 23286 ft 384 kts 13°
2026-05-06 16:49 52.76412 10.11042 22774 ft 381 kts 10°
2026-05-06 16:49 52.79005 10.11704 22280 ft 378 kts
2026-05-06 16:50 52.81625 10.12015 21797 ft 374 kts
2026-05-06 16:50 52.84197 10.12147 21321 ft 372 kts 359°
2026-05-06 16:50 52.86754 10.12207 20853 ft 369 kts 359°
2026-05-06 16:50 52.88464 10.12234 20538 ft 368 kts 359°
2026-05-06 16:51 52.91871 10.12293 19906 ft 365 kts 359°
2026-05-06 16:51 52.94377 10.12346 19435 ft 362 kts 359°
2026-05-06 16:51 52.96878 10.12408 18934 ft 361 kts 359°
2026-05-06 16:51 52.99379 10.12478 18341 ft 363 kts 359°
2026-05-06 16:52 53.01918 10.12557 17855 ft 361 kts 359°
2026-05-06 16:52 53.04391 10.12635 17392 ft 359 kts 359°
2026-05-06 16:52 53.06891 10.12722 16925 ft 357 kts 359°
2026-05-06 16:52 53.09360 10.12812 16458 ft 355 kts 360°
2026-05-06 16:53 53.11808 10.12902 16006 ft 352 kts 359°
2026-05-06 16:53 53.14212 10.12983 15552 ft 349 kts 359°
2026-05-06 16:53 53.16645 10.13056 15095 ft 346 kts 359°
2026-05-06 16:53 53.19022 10.13125 14649 ft 342 kts 359°
2026-05-06 16:54 53.21378 10.13195 14199 ft 340 kts 359°
2026-05-06 16:54 53.23739 10.13264 13759 ft 335 kts 359°
2026-05-06 16:54 53.26054 10.13339 13344 ft 331 kts 359°
2026-05-06 16:54 53.28342 10.13420 12912 ft 329 kts
2026-05-06 16:55 53.30610 10.13508 12487 ft 326 kts 360°
2026-05-06 16:55 53.32832 10.13562 12024 ft 319 kts 360°
2026-05-06 16:55 53.34999 10.13625 11657 ft 305 kts
2026-05-06 16:55 53.37110 10.13666 11276 ft 302 kts 358°
2026-05-06 16:56 53.39160 10.13213 10908 ft 299 kts 343°
2026-05-06 16:56 53.40929 10.11586 10855 ft 285 kts 318°
2026-05-06 16:56 53.42254 10.09232 10798 ft 271 kts 311°
2026-05-06 16:56 53.43463 10.06887 10537 ft 268 kts 311°
2026-05-06 16:57 53.44689 10.04570 10283 ft 264 kts 313°
2026-05-06 16:57 53.45910 10.02295 10022 ft 261 kts 313°
2026-05-06 16:57 53.47118 10.00064 9781 ft 257 kts 313°
2026-05-06 16:57 53.48218 9.97721 9521 ft 256 kts 301°
2026-05-06 16:58 53.48783 9.94894 9154 ft 258 kts 272°
2026-05-06 16:58 53.48479 9.91983 8851 ft 258 kts 246°
2026-05-06 16:58 53.47574 9.89417 8509 ft 258 kts 232°
2026-05-06 16:58 53.46439 9.87082 8180 ft 259 kts 229°
2026-05-06 16:59 53.45266 9.84793 7853 ft 259 kts 229°
2026-05-06 16:59 53.44091 9.82480 7495 ft 262 kts 230°
2026-05-06 16:59 53.42913 9.80137 7112 ft 265 kts 230°
2026-05-06 16:59 53.41735 9.77779 6741 ft 267 kts 230°
2026-05-06 17:00 53.40531 9.75366 6414 ft 268 kts 230°
2026-05-06 17:00 53.39415 9.72947 6147 ft 266 kts 241°
2026-05-06 17:00 53.38880 9.70016 5905 ft 260 kts 271°
2026-05-06 17:00 53.39221 9.67129 5656 ft 252 kts 301°
2026-05-06 17:01 53.40314 9.64971 5392 ft 241 kts 331°
2026-05-06 17:01 53.41839 9.64054 5029 ft 234 kts
2026-05-06 17:01 53.43406 9.64480 4741 ft 224 kts 22°
2026-05-06 17:01 53.44831 9.65351 4487 ft 215 kts 24°
2026-05-06 17:02 53.46208 9.66247 4233 ft 207 kts 24°
2026-05-06 17:02 53.47412 9.67426 4004 ft 199 kts 45°
2026-05-06 17:02 53.48298 9.69157 3750 ft 197 kts 53°
2026-05-06 17:02 53.49133 9.70935 3550 ft 193 kts 51°
2026-05-06 17:03 53.49990 9.72655 3402 ft 186 kts 50°
2026-05-06 17:03 53.50801 9.74259 3269 ft 179 kts 50°
2026-05-06 17:03 53.51582 9.75819 3149 ft 171 kts 50°
2026-05-06 17:03 53.52331 9.77317 3061 ft 165 kts 51°
2026-05-06 17:04 53.53085 9.78826 2886 ft 166 kts 50°
2026-05-06 17:04 53.53804 9.80264 2624 ft 154 kts 51°
2026-05-06 17:04 53.54459 9.81578 2429 ft 145 kts 50°
2026-05-06 17:04 53.55103 9.82866 2244 ft 141 kts 50°
2026-05-06 17:05 53.55704 9.84074 2009 ft 131 kts 51°
2026-05-06 17:05 53.56280 9.85232 1922 ft 126 kts 50°
2026-05-06 17:05 53.56848 9.86365 1696 ft 128 kts 50°
2026-05-06 17:05 53.57436 9.87542 1516 ft 132 kts 50°
2026-05-06 17:06 53.58027 9.88740 1319 ft 135 kts 49°
2026-05-06 17:06 53.58630 9.89945 1136 ft 136 kts 49°
2026-05-06 17:06 53.59235 9.91167 953 ft 139 kts 51°
2026-05-06 17:06 53.59875 9.92435 769 ft 142 kts 51°
2026-05-06 17:07 53.60515 9.93719 568 ft 145 kts 51°
2026-05-06 17:07 53.61160 9.95030 355 ft 146 kts 50°
2026-05-06 17:07 53.61806 9.96347 139 ft 144 kts 49°
2026-05-06 17:07 53.62430 9.97598 61 ft 129 kts 51°
2026-05-06 17:08 53.62864 9.98476 62 ft 79 kts 49°
2026-05-06 17:08 53.63213 9.99178 61 ft 66 kts 51°
2026-05-06 17:08 53.63286 9.99610 61 ft 20 kts 99°
2026-05-06 17:08 53.63282 9.99651 61 ft 0 kts 99°
2026-05-06 17:09 53.63279 9.99720 61 ft 10 kts 82°
2026-05-06 17:10 53.63319 9.99839 61 ft 14 kts 51°
2026-05-06 17:10 53.63392 9.99982 61 ft 12 kts 48°
2026-05-06 17:10 53.63435 10.00082 61 ft 8 kts 57°
2026-05-06 17:10 53.63434 10.00128 61 ft 0 kts 116°
2026-05-06 17:11 53.63409 10.00153 61 ft 6 kts 164°
2026-05-06 17:11 53.63363 10.00164 61 ft 7 kts 175°
2026-05-06 17:11 53.63298 10.00186 61 ft 8 kts 128°
2026-05-06 17:11 53.63291 10.00278 61 ft 3 kts 88°
2026-05-06 17:12 53.63291 10.00279 61 ft 0 kts 88°
2026-05-06 17:12 53.63291 10.00281 61 ft 2 kts 92°
2026-05-06 17:12 53.63293 10.00340 61 ft 0 kts 84°
2026-05-06 17:12 53.63294 10.00356 61 ft 0 kts 85°